GW0861 Weather Reports


Display with metric or nautical units.
time (UTC)temp
F
wind
direction
speed
MPH
gust
MPH
rain 1hr
in
rain 24hr
in
rain mn
in
humidity
%
barometer
mb
20260904200040 78 300 3.0 9.0 0.01 0.34 0.11 65 1014.6
20260904195540 78 326 2.0 10.0 0.01 0.33 0.11 66 1014.7
20260904195040 79 283 2.0 10.0 0.01 0.34 0.11 65 1014.8
20260904194817 79 320 2.0 10.0 0.01 0.34 0.11 66 1014.8
20260904194529 79 266 2.0 10.0 0.01 0.34 0.11 65 1014.7
20260904193806 79 286 3.0 11.0 0.01 0.35 0.11 64 1014.8
20260904193041 79 288 5.0 11.0 0.01 0.35 0.11 62 1014.8
20260904192540 80 313 2.0 9.0 0.01 0.36 0.11 62 1014.8
20260904192040 80 265 2.0 10.0 0.01 0.36 0.11 62 1014.9
20260904191747 80 302 1.0 18.0 0.01 0.36 0.10 63 1014.8
20260904190540 80 278 8.0 16.0 0.00 0.37 0.10 65 1015.0
20260904190040 80 293 2.0 12.0 0.00 0.38 0.10 68 1015.3
20260904185540 79 300 6.0 12.0 0.00 0.38 0.10 67 1015.2
20260904185528 79 278 7.0 11.0 0.00 0.39 0.10 65 1015.1
20260904184540 79 207 5.0 11.0 0.00 0.39 0.10 64 1015.2
20260904184040 79 319 2.0 10.0 0.00 0.40 0.10 71 1015.1
20260904183540 79 248 2.0 10.0 0.00 0.40 0.10 67 1015.2
20260904183041 78 230 4.0 10.0 0.00 0.41 0.10 67 1015.3
20260904182618 78 269 2.0 7.0 0.00 0.41 0.10 69 1015.6
20260904182541 78 331 5.0 9.0 0.00 0.41 0.10 69 1015.4
20260904181544 78 286 3.0 12.0 0.00 0.42 0.10 69 1015.6
20260904181540 78 272 4.0 9.0 0.00 0.42 0.10 70 1015.6
20260904175539 78 230 2.0 7.0 0.00 0.44 0.10 69 1015.8
20260904175521 78 289 3.0 9.0 0.00 0.44 0.10 67 1015.9
20260904174540 78 326 3.0 11.0 0.00 0.45 0.10 67 1015.7
20260904174040 78 310 6.0 11.0 0.00 0.45 0.10 69 1015.9
20260904173814 78 320 4.0 9.0 0.00 0.45 0.10 67 1015.9
20260904173532 78 20 5.0 9.0 0.00 0.46 0.10 67 1016.0
20260904171040 77 281 4.0 12.0 0.00 0.48 0.10 70 1016.5
20260904170540 77 271 4.0 7.0 0.00 0.48 0.10 72 1016.2
20260904170059 76 238 4.0 11.0 0.01 0.48 0.10 69 1016.1
20260904170051 77 345 5.0 11.0 0.01 0.49 0.10 69 1016.1
20260904165316 76 330 2.0 7.0 0.01 0.49 0.10 72 1016.1
20260904164539 76 274 3.0 9.0 0.01 0.49 0.10 69 1016.2
20260904164040 76 353 4.0 9.0 0.01 0.50 0.10 70 1016.2
20260904163540 76 321 4.0 7.0 0.01 0.50 0.10 71 1016.2
20260904163306 75 248 2.0 7.0 0.01 0.50 0.10 73 1016.2
20260904162039 75 340 0.0 7.0 0.01 0.51 0.10 72 1016.5
20260904161540 75 281 0.0 7.0 0.01 0.52 0.10 73 1016.6
20260904161039 75 265 2.0 7.0 0.01 0.52 0.10 72 1016.7
20260904160540 75 331 1.0 6.0 0.01 0.52 0.10 73 1016.7
20260904160040 75 312 1.0 5.0 0.00 0.53 0.09 74 1016.6
20260904155815 74 0 1.0 6.0 0.00 0.53 0.09 74 1016.5
20260904155042 74 299 2.0 6.0 0.00 0.53 0.09 72 1016.6
20260904154540 74 282 1.0 5.0 0.00 0.53 0.09 72 1016.6
20260904154040 74 305 1.0 4.0 0.00 0.54 0.09 74 1016.5
20260904153540 74 281 0.0 15.0 0.00 0.54 0.09 72 1016.6
20260904153040 74 286 1.0 15.0 0.00 0.54 0.09 72 1016.6
20260904152540 74 310 6.0 15.0 0.00 0.54 0.09 72 1016.4
20260904152053 74 248 7.0 11.0 0.00 0.55 0.09 71 1016.4
20260904152047 74 262 6.0 11.0 0.00 0.55 0.09 72 1016.5
20260904151040 74 283 3.0 9.0 0.00 0.55 0.09 73 1016.2
20260904150541 74 312 2.0 12.0 0.00 0.55 0.09 73 1016.2
20260904150042 73 305 4.0 12.0 0.00 0.56 0.09 76 1016.2
20260904145539 73 289 0.0 4.0 0.00 0.56 0.09 77 1016.1
20260904145039 73 274 1.0 6.0 0.00 0.56 0.09 75 1016.1
20260904144539 73 28 2.0 6.0 0.00 0.56 0.09 75 1016.4
20260904144039 73 76 2.0 6.0 0.00 0.57 0.09 77 1016.0
20260904143814 72 333 1.0 6.0 0.00 0.57 0.09 80 1016.0
20260904143317 72 283 3.0 5.0 0.00 0.57 0.09 80 1015.9
20260904142540 71 117 1.0 6.0 0.00 0.57 0.09 83 1015.9
20260904142039 71 317 3.0 6.0 0.00 0.57 0.09 81 1016.1
20260904141539 71 358 1.0 5.0 0.00 0.58 0.09 80 1016.2
20260904141125 71 0 2.0 9.0 0.00 0.58 0.09 81 1016.5
20260904141040 71 54 2.0 9.0 0.00 0.58 0.09 81 1016.2
20260904140041 71 316 4.0 10.0 0.01 0.58 0.09 81 1016.4
20260904140025 71 255 6.0 10.0 0.01 0.57 0.09 82 1016.4
20260904135039 71 288 3.0 9.0 0.01 0.58 0.09 84 1016.5
20260904134542 71 295 1.0 10.0 0.01 0.58 0.09 86 1016.6
20260904134538 71 344 3.0 10.0 0.01 0.58 0.09 85 1016.6
20260904133539 71 269 1.0 5.0 0.01 0.58 0.09 86 1016.4
20260904133039 71 341 2.0 7.0 0.01 0.58 0.09 87 1016.4
20260904132539 71 317 1.0 7.0 0.01 0.58 0.09 86 1016.4
20260904132039 71 237 2.0 9.0 0.01 0.59 0.09 86 1016.2
20260904131815 71 305 2.0 9.0 0.01 0.59 0.09 85 1016.1
20260904131041 71 338 2.0 4.0 0.01 0.59 0.09 87 1016.0
20260904130814 71 210 1.0 4.0 0.01 0.59 0.09 87 1016.2
20260904130039 70 275 1.0 4.0 0.00 0.60 0.08 89 1016.0
20260904125539 70 293 0.0 4.0 0.00 0.60 0.08 90 1015.9
20260904125040 70 62 1.0 5.0 0.00 0.60 0.08 90 1016.0
20260904124540 69 336 1.0 5.0 0.00 0.60 0.08 92 1016.1
20260904124313 69 307 1.0 5.0 0.00 0.60 0.08 93 1016.4
20260904123539 69 306 0.0 5.0 0.00 0.60 0.08 93 1016.4
20260904123039 69 286 1.0 4.0 0.01 0.60 0.08 93 1016.1
20260904122539 68 286 2.0 4.0 0.01 0.60 0.08 94 1016.1
20260904122039 68 276 1.0 3.0 0.01 0.60 0.08 94 1016.0
20260904121540 68 276 1.0 5.0 0.01 0.60 0.08 95 1016.1
20260904121040 68 276 1.0 5.0 0.01 0.60 0.08 95 1016.0
20260904120539 67 276 0.0 4.0 0.01 0.60 0.08 95 1016.0
20260904120040 67 271 3.0 4.0 0.01 0.60 0.08 95 1016.0
20260904115539 67 37 0.0 3.0 0.01 0.59 0.08 95 1016.0
20260904115039 67 295 0.0 2.0 0.01 0.59 0.08 95 1015.9
20260904114539 67 302 0.0 4.0 0.01 0.60 0.08 95 1015.9
20260904114039 67 261 0.0 4.0 0.01 0.60 0.08 95 1015.8
20260904113541 67 358 1.0 3.0 0.01 0.60 0.07 95 1016.0
20260904113039 67 279 1.0 3.0 0.00 0.60 0.07 95 1015.9
20260904112817 67 331 0.0 3.0 0.00 0.60 0.07 95 1015.9
20260904112039 67 49 0.0 3.0 0.00 0.60 0.07 95 1015.8
20260904111541 67 89 1.0 3.0 0.00 0.61 0.07 95 1015.8
20260904111537 67 298 0.0 1.0 0.01 0.61 0.07 95 1015.9
20260904110539 67 298 0.0 1.0 0.01 0.61 0.07 95 1016.0
20260904110315 67 298 0.0 1.0 0.01 0.61 0.07 95 1015.8
20260904105540 67 298 0.0 2.0 0.01 0.60 0.07 95 1015.8
20260904105039 67 298 0.0 2.0 0.01 0.60 0.07 95 1016.0
20260904104539 67 298 0.0 2.0 0.01 0.61 0.07 95 1015.9
20260904104040 67 298 1.0 2.0 0.01 0.61 0.07 95 1015.8
20260904103539 67 298 0.0 2.0 0.01 0.61 0.07 95 1015.7
20260904103041 67 298 0.0 2.0 0.01 0.61 0.07 94 1015.6
20260904102539 67 298 1.0 3.0 0.01 0.61 0.07 94 1015.6
20260904102039 67 298 1.0 3.0 0.01 0.62 0.07 95 1015.6
20260904101539 67 298 2.0 4.0 0.01 0.62 0.07 95 1015.6
20260904101039 67 298 2.0 4.0 0.01 0.62 0.06 94 1015.6
20260904100539 67 298 2.0 6.0 0.01 0.62 0.06 94 1015.6
20260904100039 67 298 3.0 6.0 0.01 0.62 0.06 95 1015.6
20260904095539 67 286 3.0 4.0 0.01 0.61 0.06 94 1015.6
20260904095040 67 295 2.0 4.0 0.01 0.62 0.06 94 1015.4
20260904094540 67 292 2.0 3.0 0.01 0.62 0.06 94 1015.4
20260904094040 67 292 0.0 4.0 0.01 0.62 0.06 94 1015.5
20260904093539 67 292 2.0 4.0 0.01 0.62 0.06 94 1015.6
20260904093039 67 299 1.0 3.0 0.01 0.62 0.06 94 1015.5
20260904092539 67 299 1.0 2.0 0.01 0.63 0.06 94 1015.6
20260904092040 67 299 0.0 2.0 0.01 0.63 0.06 94 1015.5
20260904091539 67 299 0.0 2.0 0.01 0.63 0.06 94 1015.5
20260904091040 67 299 0.0 4.0 0.01 0.63 0.05 94 1015.4
20260904090539 67 299 2.0 4.0 0.01 0.63 0.05 94 1015.4
20260904090040 67 299 1.0 4.0 0.01 0.63 0.05 94 1015.4
20260904085812 67 299 2.0 4.0 0.01 0.62 0.05 94 1015.3
20260904085039 67 299 3.0 4.0 0.01 0.62 0.05 94 1015.3
20260904084539 67 299 3.0 5.0 0.01 0.62 0.05 94 1015.3
20260904084039 67 299 3.0 5.0 0.01 0.62 0.05 94 1015.3
20260904083538 67 281 2.0 4.0 0.01 0.62 0.05 94 1015.2
20260904083058 68 281 1.0 4.0 0.01 0.63 0.05 94 1015.1
20260904083050 68 281 1.0 4.0 0.01 0.63 0.05 94 1015.1
20260904082039 68 281 2.0 4.0 0.01 0.63 0.05 94 1015.0
20260904081539 68 281 2.0 5.0 0.02 0.63 0.05 93 1015.0
20260904081038 68 281 3.0 5.0 0.01 0.63 0.04 93 1015.0
20260904080539 68 281 2.0 5.0 0.01 0.63 0.04 93 1014.9
20260904080039 68 272 0.0 2.0 0.01 0.63 0.04 93 1015.0
20260904075539 68 272 0.0 4.0 0.01 0.62 0.04 93 1015.0
20260904075039 68 272 1.0 4.0 0.01 0.62 0.04 93 1015.0
20260904074539 68 296 1.0 3.0 0.01 0.62 0.04 93 1015.1
20260904074039 68 296 2.0 3.0 0.01 0.62 0.04 93 1015.1
20260904073540 68 296 2.0 4.0 0.01 0.62 0.04 93 1015.1
20260904073038 68 296 3.0 4.0 0.01 0.62 0.04 94 1015.1
20260904072539 68 296 2.0 4.0 0.02 0.62 0.04 94 1015.0
20260904072039 68 296 2.0 4.0 0.02 0.62 0.03 94 1014.8
20260904071813 68 296 2.0 6.0 0.01 0.62 0.03 93 1014.8
20260904071315 68 268 3.0 7.0 0.01 0.62 0.03 93 1014.7
20260904070539 68 268 5.0 7.0 0.01 0.62 0.03 93 1014.7
20260904070039 68 290 4.0 6.0 0.01 0.62 0.03 93 1014.7
20260904065539 68 274 2.0 6.0 0.01 0.61 0.03 93 1014.5
20260904065038 68 283 2.0 4.0 0.01 0.61 0.03 93 1014.4
20260904064817 68 283 2.0 3.0 0.01 0.61 0.03 93 1014.4
20260904064039 68 283 1.0 4.0 0.01 0.61 0.03 93 1014.4
20260904063538 68 283 2.0 4.0 0.01 0.61 0.03 93 1014.5
20260904063312 68 295 1.0 4.0 0.01 0.61 0.03 93 1014.4
20260904062539 68 295 2.0 4.0 0.00 0.61 0.02 93 1014.4
20260904062039 68 293 1.0 4.0 0.00 0.61 0.02 93 1014.5
20260904061539 68 317 1.0 7.0 0.00 0.61 0.02 93 1014.5
20260904061039 68 285 3.0 7.0 0.01 0.61 0.02 93 1014.6
20260904060539 68 306 3.0 9.0 0.01 0.61 0.02 92 1014.5
20260904060038 68 281 3.0 9.0 0.01 0.61 0.02 92 1014.5
20260904060032 68 275 4.0 9.0 0.01 0.60 0.02 92 1014.6
20260904055300 68 299 4.0 9.0 0.01 0.60 0.02 92 1014.6
20260904054538 69 298 3.0 6.0 0.01 0.60 0.02 92 1014.7
20260904054319 69 296 4.0 7.0 0.01 0.60 0.02 91 1014.7
20260904054307 69 316 4.0 6.0 0.01 0.60 0.02 91 1014.7
20260904053310 69 286 2.0 7.0 0.01 0.60 0.02 91 1014.6
20260904052539 69 283 3.0 6.0 0.01 0.60 0.02 91 1014.7
20260904052039 69 323 2.0 9.0 0.02 0.60 0.02 91 1014.8
20260904051539 69 313 2.0 9.0 0.02 0.60 0.02 91 1014.8
20260904051039 69 276 6.0 9.0 0.01 0.60 0.01 91 1015.0
20260904050538 69 283 4.0 6.0 0.01 0.60 0.01 91 1015.0
20260904050039 69 285 4.0 6.0 0.01 0.60 0.01 90 1014.8
20260904045543 69 289 4.0 7.0 0.01 0.59 0.01 90 1014.9
20260904045315 70 289 4.0 9.0 0.01 0.59 0.01 90 1014.9
20260904045030 70 283 4.0 9.0 0.01 0.59 0.01 90 1014.8
20260904044310 70 298 4.0 7.0 0.02 0.59 0.01 90 1014.8
20260904043538 70 290 4.0 9.0 0.02 0.59 0.01 90 1014.9
20260904043038 70 279 4.0 9.0 0.02 0.59 0.01 89 1015.0
20260904042801 70 293 4.0 9.0 0.02 0.59 0.01 89 1014.9
20260904042039 70 290 4.0 9.0 0.01 0.60 0.00 89 1014.8
20260904041538 70 309 4.0 7.0 0.01 0.60 0.00 89 1014.9
20260904041039 70 292 4.0 10.0 0.01 0.60 0.00 89 1014.8
20260904040537 70 293 5.0 10.0 0.02 0.60 0.00 89 1014.9
20260904040038 71 0 5.0 9.0 0.02 0.60 0.00 89 1014.9
20260904035538 71 307 3.0 9.0 0.02 0.58 0.60 89 1015.0
20260904035407 71 289 4.0 9.0 0.02 0.58 0.60 89 1014.8
20260904035228 71 283 3.0 10.0 0.02 0.58 0.59 89 1014.9
20260904034039 71 309 4.0 14.0 0.01 0.58 0.59 89 1014.9
20260904033811 71 266 7.0 16.0 0.02 0.58 0.59 89 1015.0
20260904033039 71 0 9.0 17.0 0.02 0.58 0.59 89 1015.0
20260904033016 71 0 10.0 17.0 0.02 0.58 0.59 89 1015.0
20260904032038 71 282 11.0 15.0 0.02 0.58 0.59 90 1015.0
20260904031814 71 271 8.0 13.0 0.02 0.58 0.59 91 1014.9
20260904031039 72 0 7.0 13.0 0.02 0.58 0.59 92 1015.0
20260904030817 72 257 6.0 12.0 0.01 0.58 0.58 92 1014.9
20260904030245 72 0 7.0 13.0 0.02 0.58 0.58 92 1014.8
20260904024758 72 0 7.0 13.0 0.02 0.56 0.58 93 1015.0
20260904024039 72 313 7.0 12.0 0.02 0.56 0.58 93 1014.7
20260904023539 72 314 6.0 14.0 0.01 0.56 0.57 93 1014.7
20260904023038 72 302 10.0 14.0 0.01 0.56 0.57 93 1014.6
20260904022814 72 288 8.0 17.0 0.02 0.56 0.57 93 1014.6
20260904022315 72 305 9.0 17.0 0.02 0.56 0.57 93 1014.7
20260904021538 72 299 6.0 12.0 0.02 0.56 0.57 93 1014.7
20260904021039 72 0 4.0 7.0 0.02 0.56 0.57 93 1014.7
20260904020538 72 262 2.0 4.0 0.02 0.56 0.57 93 1014.9
20260904020313 72 285 2.0 4.0 0.02 0.56 0.56 93 1015.0
20260904015538 72 144 0.0 1.0 0.02 0.54 0.56 93 1015.0
20260904015039 72 144 0.0 2.0 0.02 0.54 0.56 93 1014.8
20260904014537 72 144 0.0 2.0 0.02 0.54 0.56 92 1014.9
20260904014038 73 144 1.0 2.0 0.02 0.54 0.56 92 1014.9
20260904013538 73 144 0.0 2.0 0.03 0.54 0.56 92 1014.8
20260904013058 73 144 2.0 3.0 0.02 0.54 0.55 92 1014.9
20260904013050 73 144 2.0 3.0 0.03 0.54 0.56 93 1015.0
20260904012038 73 144 1.0 2.0 0.02 0.54 0.55 92 1015.1
20260904011538 73 144 1.0 4.0 0.02 0.54 0.55 92 1015.1
20260904011038 73 144 2.0 4.0 0.03 0.54 0.55 92 1015.1
20260904010538 73 144 2.0 4.0 0.03 0.54 0.55 92 1015.2
20260904010038 73 288 0.0 3.0 0.02 0.54 0.54 91 1015.3
20260904005550 73 288 0.0 0.0 0.02 0.52 0.54 91 1015.2
20260904004540 73 288 0.0 2.0 0.03 0.52 0.54 90 1015.0
20260904004037 73 288 0.0 2.0 0.03 0.52 0.54 90 1015.0
20260904003538 73 288 0.0 2.0 0.02 0.52 0.53 90 1015.1
20260904003056 73 288 0.0 3.0 0.03 0.52 0.53 89 1015.1
20260904003050 73 288 0.0 2.0 0.03 0.52 0.53 90 1015.0
20260904002038 74 288 0.0 3.0 0.03 0.52 0.53 89 1015.1
20260904001538 74 288 2.0 5.0 0.03 0.52 0.53 89 1015.1
20260904001038 74 288 2.0 6.0 0.02 0.52 0.52 89 1015.2
20260904000539 74 288 3.0 6.0 0.03 0.52 0.52 89 1015.1
20260904000039 74 288 2.0 6.0 0.03 0.52 0.52 89 1014.9
20260903235538 74 288 5.0 6.0 0.03 0.49 0.52 88 1014.9
20260903235039 74 0 3.0 6.0 0.03 0.49 0.51 88 1014.9
20260903234539 74 278 2.0 4.0 0.03 0.49 0.51 88 1014.8
20260903234039 75 278 2.0 5.0 0.03 0.49 0.51 87 1014.8
20260903233538 75 278 2.0 7.0 0.03 0.49 0.51 87 1014.9
20260903233038 75 303 4.0 9.0 0.03 0.49 0.50 87 1015.0
20260903232538 75 292 5.0 10.0 0.03 0.49 0.50 87 1015.0
20260903232038 75 0 5.0 10.0 0.03 0.49 0.50 86 1015.0
20260903231538 75 0 6.0 11.0 0.04 0.49 0.50 86 1015.2
20260903231038 76 306 5.0 11.0 0.04 0.49 0.49 86 1015.1
20260903230538 76 316 3.0 7.0 0.03 0.49 0.49 86 1015.2
20260903230311 76 302 4.0 6.0 0.03 0.49 0.49 86 1015.3
20260903225614 76 0 4.0 11.0 0.03 0.46 0.48 85 1015.4
20260903225610 77 276 7.0 12.0 0.03 0.46 0.48 84 1015.4
20260903225600 76 281 3.0 6.0 0.04 0.46 0.49 85 1015.4
20260903224038 77 307 6.0 12.0 0.04 0.46 0.48 84 1015.3
20260903223538 78 0 6.0 10.0 0.04 0.46 0.48 84 1015.3
20260903223039 78 274 4.0 6.0 0.03 0.46 0.47 83 1015.1
20260903222538 78 281 2.0 5.0 0.04 0.46 0.47 83 1014.9
20260903222038 78 286 2.0 4.0 0.04 0.46 0.47 83 1014.8
20260903221538 79 302 2.0 7.0 0.03 0.46 0.46 82 1014.7
20260903221530 79 268 3.0 7.0 0.04 0.46 0.46 81 1014.7
20260903220538 79 271 0.0 4.0 0.04 0.46 0.46 81 1014.7
20260903220038 79 42 1.0 7.0 0.04 0.47 0.46 82 1014.6
20260903215538 80 66 2.0 7.0 0.04 0.43 0.45 82 1014.7
20260903215313 80 54 0.0 3.0 0.04 0.43 0.45 81 1014.7
20260903214538 80 327 0.0 4.0 0.04 0.43 0.45 80 1014.4
20260903214039 80 333 0.0 4.0 0.04 0.43 0.44 81 1014.4
20260903213538 80 334 0.0 4.0 0.04 0.43 0.44 80 1014.6
20260903213038 80 302 0.0 4.0 0.05 0.43 0.44 81 1014.7
20260903212557 81 93 2.0 4.0 0.04 0.43 0.43 77 1013.9
20260903212551 80 269 1.0 4.0 0.04 0.43 0.43 79 1014.5
20260903211540 81 63 0.0 4.0 0.05 0.43 0.43 78 1014.0
20260903211038 81 39 0.0 2.0 0.04 0.43 0.42 79 1014.2
20260903210537 81 75 1.0 2.0 0.04 0.43 0.42 77 1014.4
20260903210313 82 20 0.0 3.0 0.05 0.43 0.42 77 1014.6
20260903205538 82 1 0.0 3.0 0.04 0.38 0.41 77 1014.6
20260903205314 82 97 0.0 1.0 0.05 0.38 0.41 77 1014.5
20260903204538 82 99 0.0 2.0 0.05 0.38 0.41 78 1014.4
20260903204058 82 99 0.0 3.0 0.05 0.38 0.40 75 1014.4
20260903204050 82 99 0.0 2.0 0.04 0.38 0.40 77 1014.4
20260903203037 82 99 1.0 3.0 0.04 0.38 0.39 75 1014.4
20260903202537 82 285 0.0 3.0 0.05 0.38 0.39 75 1014.4
20260903202038 82 285 0.0 3.0 0.05 0.38 0.39 76 1014.5
20260903201540 82 347 0.0 3.0 0.04 0.38 0.38 76 1014.6
20260903201038 82 265 0.0 3.0 0.05 0.38 0.38 76 1014.8
20260903200538 81 35 0.0 1.0 0.05 0.38 0.38 76 1014.7